Location: Unnamed Road
(35.9029°N, 51.9749°E)
Time: 09:57:21
(UTC+04:30)

Altair - All Passes

Search period start: 06 June 2020 00:00
Search period end: 16 June 2020 00:00
Orbit: 1501 x 1683 km, 47.2° (Epoch: 05 June)

Date Brightness Start Highest point End Pass type
(mag) Time Alt. Az. Time Alt. Az. Time Alt. Az.
06 Jun - 01:02:35 10° WNW 01:12:10 45° N 01:21:48 10° E visible
06 Jun - 03:08:06 10° NW 03:18:20 77° NNE 03:28:26 10° ESE visible
06 Jun - 05:13:38 10° WNW 05:22:42 39° SW 05:31:37 10° SSE visible
06 Jun - 18:25:02 10° SSE 18:31:14 19° ESE 18:37:34 10° E daylight
06 Jun - 20:25:08 10° SW 20:34:43 72° SE 20:44:42 10° ENE visible
06 Jun - 22:30:28 10° W 22:40:03 53° NNW 22:49:58 10° ENE visible
07 Jun - 00:37:17 10° WNW 00:46:49 44° N 00:56:26 10° ENE visible
07 Jun - 02:42:52 10° NW 02:53:05 73° NNE 03:03:10 10° ESE visible
07 Jun - 04:48:17 10° WNW 04:57:35 42° SW 05:06:43 10° SSE visible
07 Jun - 18:00:41 10° SSE 18:06:12 17° ESE 18:11:49 10° E daylight
07 Jun - 20:00:04 10° SW 20:09:33 67° SE 20:19:27 10° ENE daylight
07 Jun - 22:05:09 10° W 22:14:45 55° NNW 22:24:41 10° ENE visible
08 Jun - 00:11:59 10° WNW 00:21:27 44° N 00:31:03 10° ENE visible
08 Jun - 02:17:39 10° NW 02:27:49 70° NNE 02:37:54 10° ESE visible
08 Jun - 04:22:57 10° WNW 04:32:27 46° SW 04:41:48 10° SSE visible
08 Jun - 17:36:30 10° SSE 17:41:09 15° ESE 17:45:53 10° E daylight
08 Jun - 19:35:01 10° SW 19:44:24 62° SE 19:54:10 10° ENE daylight
08 Jun - 21:39:51 10° W 21:49:27 58° NNW 21:59:24 10° NE visible
08 Jun - 23:46:40 10° WNW 23:56:05 44° N 00:05:40 10° ENE visible
09 Jun - 01:52:25 10° NW 02:02:31 66° NNE 02:12:36 10° ESE visible
09 Jun - 03:57:39 10° WNW 04:07:18 51° SW 04:16:50 10° SSE visible
09 Jun - 06:09:30 10° WSW 06:10:26 10° WSW 06:11:23 10° SW daylight
09 Jun - 17:12:38 10° SE 17:16:08 12° ESE 17:19:39 10° E daylight
09 Jun - 19:10:01 10° SSW 19:19:16 57° SE 19:28:53 10° ENE daylight
09 Jun - 21:14:33 10° WSW 21:24:10 61° NNW 21:34:09 10° NE visible
09 Jun - 23:21:20 10° WNW 23:30:43 43° N 23:40:17 10° ENE visible
10 Jun - 01:27:12 10° NW 01:37:14 63° NNE 01:47:17 10° ESE visible
10 Jun - 03:32:22 10° WNW 03:42:09 55° SW 03:51:50 10° SSE visible
10 Jun - 05:41:56 10° W 05:45:24 12° WSW 05:48:52 10° SW daylight
10 Jun - 16:49:44 10° SE 16:51:06 10° ESE 16:52:29 10° ESE daylight
10 Jun - 18:45:03 10° SSW 18:54:08 52° SE 19:03:36 10° ENE daylight
10 Jun - 20:49:17 10° WSW 20:58:53 64° NNW 21:08:53 10° NE visible
10 Jun - 22:56:00 10° WNW 23:05:21 43° N 23:14:55 10° ENE visible
11 Jun - 01:01:58 10° NW 01:11:57 60° NNE 01:21:58 10° ESE visible
11 Jun - 03:07:06 10° WNW 03:17:00 60° SW 03:26:49 10° SSE visible
11 Jun - 05:15:37 10° W 05:20:21 14° WSW 05:25:03 10° SSW visible
11 Jun - 18:20:06 10° SSW 18:29:01 48° SE 18:38:17 10° ENE daylight
11 Jun - 20:24:01 10° WSW 20:33:37 67° NNW 20:43:38 10° NE daylight
11 Jun - 22:30:41 10° WNW 22:39:59 44° N 22:49:33 10° ENE visible
12 Jun - 00:36:45 10° NW 00:46:38 57° NNE 00:56:37 10° E visible
12 Jun - 02:41:50 10° WNW 02:51:49 65° SW 03:01:45 10° SE visible
12 Jun - 04:49:38 10° W 04:55:17 17° WSW 05:00:54 10° SSW visible
12 Jun - 17:55:11 10° SSW 18:03:55 44° SE 18:12:59 10° ENE daylight
12 Jun - 19:58:47 10° WSW 20:08:22 70° NNW 20:18:23 10° NE daylight
12 Jun - 22:05:21 10° WNW 22:14:38 44° N 22:24:11 10° ENE visible
13 Jun - 00:11:30 10° WNW 00:21:20 55° NNE 00:31:16 10° E visible
13 Jun - 02:16:36 10° WNW 02:26:39 70° SW 02:36:39 10° SE visible
13 Jun - 04:23:50 10° W 04:30:13 19° WSW 04:36:34 10° SSW visible
13 Jun - 17:30:19 10° SSW 17:38:49 40° SE 17:47:39 10° ENE daylight
13 Jun - 19:33:33 10° WSW 19:43:08 74° NNW 19:53:09 10° NE daylight
13 Jun - 21:40:01 10° WNW 21:49:17 44° N 21:58:50 10° ENE visible
13 Jun - 23:46:16 10° WNW 23:56:01 53° NNE 00:05:54 10° E visible
14 Jun - 01:51:22 10° WNW 02:01:27 75° SW 02:11:32 10° SE visible
14 Jun - 03:58:10 10° W 04:05:09 21° SW 04:12:06 10° S visible
14 Jun - 17:05:29 10° SSW 17:13:44 36° SE 17:22:17 10° ENE daylight
14 Jun - 19:08:21 10° WSW 19:17:54 79° NNW 19:27:54 10° NE daylight
14 Jun - 21:14:41 10° W 21:23:56 45° N 21:33:30 10° ENE visible
14 Jun - 23:21:01 10° WNW 23:30:41 51° NNE 23:40:31 10° E visible
15 Jun - 01:26:08 10° WNW 01:36:15 80° SW 01:46:23 10° SE visible
15 Jun - 03:32:35 10° WNW 03:40:04 24° SW 03:47:31 10° S visible
15 Jun - 16:40:42 10° S 16:48:40 32° SE 16:56:52 10° ENE daylight
15 Jun - 18:43:10 10° WSW 18:52:42 83° NNW 19:02:40 10° NE daylight
15 Jun - 20:49:21 10° W 20:58:36 46° N 21:08:09 10° ENE visible
15 Jun - 22:55:46 10° WNW 23:05:21 49° NNE 23:15:07 10° E visible
